EA1IOK-13 Weather Reports


time (UTC)temp
F
wind
direction
speed
knots
gust
knots
rain 1hr
in
rain 24hr
in
rain mn
in
humidity
%
barometer
mb
20260508090549 51 66 2.6 2.6 0.07 0.39 0.37 96 1009.7
20260508083633 51 67 1.7 2.6 0.06 0.35 0.33 96 1009.5
20260508083601 51 67 1.7 2.6 0.06 0.35 0.33 96 1009.5
20260508080550 50 68 0.0 0.9 0.02 0.31 0.30 96 1009.5
20260508073630 50 23 1.7 2.6 0.05 0.29 0.28 97 1009.0
20260508073549 50 23 1.7 2.6 0.05 0.29 0.28 97 1009.0
20260508072049 50 25 2.6 2.6 0.09 0.29 0.28 97 1008.7
20260508063627 49 49 1.7 2.6 0.11 0.24 0.23 96 1008.9
20260508063548 49 49 1.7 2.6 0.11 0.24 0.23 96 1008.9
20260508060550 50 87 2.6 2.6 0.17 0.19 0.17 97 1008.6
20260508055050 49 113 1.7 2.6 0.16 0.17 0.16 97 1008.5
20260508053831 49 208 1.7 2.6 0.12 0.13 0.12 97 1008.7
20260508053548 49 208 1.7 2.6 0.12 0.13 0.12 97 1008.7
20260508045122 49 0 0.0 0.9 0.00 0.02 0.00 96 1007.7
20260508045050 49 0 0.0 0.9 0.00 0.02 0.00 96 1007.7
20260508043624 49 359 1.7 2.6 0.00 0.02 0.00 96 1007.4
20260508043548 49 359 1.7 2.6 0.00 0.02 0.00 96 1007.4
20260508042050 50 353 2.6 4.3 0.00 0.02 0.00 96 1007.3
20260508040548 49 1 2.6 2.6 0.00 0.02 0.00 96 1007.5
20260508033549 49 30 2.6 2.6 0.00 0.02 0.00 97 1007.7
20260508032052 49 30 0.0 0.9 0.00 0.02 0.00 96 1007.9
20260508030549 48 30 0.0 0.9 0.00 0.02 0.00 96 1007.9
20260508025122 48 30 0.0 0.0 0.00 0.02 0.00 96 1007.9
20260508025049 48 30 0.0 0.0 0.00 0.02 0.00 96 1007.9
20260508022131 49 30 1.7 2.6 0.00 0.02 0.00 95 1008.0
20260508022048 49 30 1.7 2.6 0.00 0.02 0.00 95 1008.0
20260508015124 49 30 0.9 1.7 0.00 0.02 0.00 94 1008.3
20260508015050 49 30 0.9 1.7 0.00 0.02 0.00 94 1008.3
20260508013549 50 30 1.7 2.6 0.00 0.02 0.00 95 1008.6
20260508003549 51 63 2.6 4.3 0.00 0.02 0.00 94 1009.6
20260508002133 51 67 2.6 2.6 0.00 0.02 0.00 95 1009.6
20260508002049 51 67 2.6 2.6 0.00 0.02 0.00 95 1009.6
20260508000550 50 5 1.7 2.6 0.00 0.02 0.00 95 1009.8
20260507235124 50 5 1.7 2.6 0.00 0.02 0.00 95 1009.9
20260507235051 50 5 1.7 2.6 0.00 0.02 0.00 95 1009.9
20260507233550 51 11 2.6 2.6 0.00 0.02 0.00 95 1010.0
20260507230549 51 5 1.7 2.6 0.00 0.02 0.00 95 1010.3
20260507223600 51 5 1.7 2.6 0.00 0.02 0.00 93 1010.2
20260507215124 52 16 2.6 4.3 0.02 0.02 0.02 91 1009.9
20260507215048 52 16 2.6 4.3 0.02 0.02 0.02 91 1009.9
20260507205101 53 352 0.9 1.7 0.00 0.00 0.00 85 1009.9
20260507203549 54 352 2.6 2.6 0.00 0.00 0.00 84 1009.7
20260507202052 55 346 1.7 2.6 0.00 0.00 0.00 79 1009.6
20260507200549 55 36 0.9 1.7 0.00 0.00 0.00 81 1009.3
20260507193551 55 25 1.7 2.6 0.00 0.00 0.00 81 1008.7
20260507173550 63 198 0.9 1.7 0.00 0.00 0.00 64 1008.3
20260507163552 64 252 2.6 5.2 0.00 0.00 0.00 63 1008.3
20260507152231 66 219 10.4 13.9 0.00 0.00 0.00 62 1007.8
20260507152051 66 219 10.4 13.9 0.00 0.00 0.00 62 1007.8
20260507150550 67 225 5.2 8.7 0.00 0.00 0.00 60 1007.7
20260507143553 68 303 5.2 10.4 0.00 0.00 0.00 65 1007.5
20260507142049 66 293 6.1 8.7 0.00 0.00 0.00 66 1007.6
20260507135050 67 190 5.2 7.8 0.00 0.00 0.00 63 1007.3
20260507133549 70 189 4.3 10.4 0.00 0.00 0.00 58 1007.2
20260507132052 68 354 1.7 4.3 0.00 0.00 0.00 61 1007.3
20260507125126 67 263 0.9 1.7 0.00 0.00 0.00 61 1007.8
20260507125052 67 263 0.9 1.7 0.00 0.00 0.00 61 1007.8
20260507122052 68 298 4.3 7.8 0.00 0.00 0.00 60 1008.2
20260507120549 67 218 4.3 5.2 0.00 0.00 0.00 60 1008.4
20260507102237 60 57 1.7 2.6 0.00 0.00 0.00 77 1009.4
20260507102050 60 57 1.7 2.6 0.00 0.00 0.00 77 1009.4
20260507100551 59 217 0.9 0.9 0.00 0.00 0.00 77 1009.5
20260507093853 57 288 0.9 2.6 0.00 0.00 0.00 81 1009.7
20260507093549 57 288 0.9 2.6 0.00 0.00 0.00 81 1009.7
20260507092050 56 57 0.0 0.9 0.00 0.00 0.00 81 1009.8